Location: Penton Mewsey
(51.2167°N, 1.5167°W)
Time: 13:18:04
(UTC+00:00)

Cosmos 1697 Rocket - Pass Details

Date: 30 March 2020
Orbit: 831 x 845 km, 71.0° (Epoch: 26 May)

Event Time Altitude Azimuth Distance (km) Brightness Sun altitude
Rises 22:02:48 0° 331° (NNW) 3,409 7.1 -28.2°
Reaches altitude 10° 22:05:35 10° 342° (NNW) 2,473 6.0 -28.5°
Maximum altitude 22:10:30 29° 43° (NE) 1,493 4.0 -28.9°
Enters shadow 22:10:58 29° 52° (NE) 1,504 4.0 -29.0°
